This demonstration page uses our WeatherBlox Daily Observations layout. Learn more.

39.29038, -76.61219

Hourly Observations for April 29, 2018

Temp ( °F °C ) Dew Point ( °F °C ) Humidity (%) Winds ( mph kmh ) Pressure ( in mb ) Visibility ( mi km ) Precip ( " mm )
12:54 am 00:54 undefined 54 12.2 39 3.9 57 57 undefined N/A 29.94 1014 N/A 0 0
1:54 am 01:54 undefined 53 11.7 37 2.8 55 55 undefined N/A 29.97 1015 N/A 0 0
2:54 am 02:54 undefined 51 10.6 33 0.6 50 50 undefined N/A 29.96 1015 N/A 0 0
3:54 am 03:54 undefined 50 10 30 -1.1 46 46 undefined N/A 29.98 1015 N/A 0 0
4:54 am 04:54 undefined 48 8.9 30 -1.1 50 50 undefined N/A 29.97 1015 N/A 0 0
5:54 am 05:54 undefined 47 8.3 30 -1.1 52 52 undefined N/A 29.98 1015 N/A 0 0
6:54 am 06:54 undefined 47 8.3 30 -1.1 52 52 undefined N/A 30.01 1016 N/A 0 0
7:54 am 07:54 undefined 48 8.9 29 -1.7 48 48 undefined N/A 30.05 1018 N/A 0 0
8:54 am 08:54 undefined 50 10 29 -1.7 44 44 undefined N/A 30.06 1018 N/A 0 0
9:54 am 09:54 undefined 51 10.6 30 -1.1 44 44 undefined N/A 30.07 1018 N/A 0 0
10:54 am 10:54 undefined 50 10 28 -2.2 43 43 undefined N/A 30.08 1019 N/A 0 0
11:54 am 11:54 undefined 51 10.6 30 -1.1 44 44 undefined N/A 30.09 1019 N/A 0 0
12:54 pm 12:54 undefined 53 11.7 30 -1.1 41 41 undefined N/A 30.09 1019 N/A 0 0
1:54 pm 13:54 undefined 52 11.1 29 -1.7 41 41 undefined N/A 30.09 1019 N/A 0 0
2:54 pm 14:54 undefined 53 11.7 30 -1.1 41 41 undefined N/A 30.09 1019 N/A 0 0
3:54 pm 15:54 undefined 54 12.2 31 -0.6 42 42 undefined N/A 30.09 1019 N/A 0 0
4:54 pm 16:54 undefined 54 12.2 30 -1.1 40 40 undefined N/A 30.09 1019 N/A 0 0
5:54 pm 17:54 undefined 54 12.2 31 -0.6 42 42 undefined N/A 30.08 1019 N/A 0 0
6:54 pm 18:54 undefined 53 11.7 31 -0.6 43 43 undefined N/A 30.09 1019 N/A 0 0
7:54 pm 19:54 undefined 52 11.1 31 -0.6 45 45 undefined N/A 30.11 1020 N/A 0 0
8:54 pm 20:54 undefined 51 10.6 30 -1.1 44 44 undefined N/A 30.14 1021 N/A 0 0
9:54 pm 21:54 undefined 50 10 31 -0.6 48 48 undefined N/A 30.16 1021 N/A 0 0
10:54 pm 22:54 undefined 49 9.4 31 -0.6 50 50 undefined N/A 30.16 1021 N/A 0 0
11:54 pm 23:54 undefined 48 8.9 31 -0.6 52 52 undefined N/A 30.15 1021 N/A 0 0

Powered by AerisWeather